This demonstration page uses our WeatherBlox Daily Observations layout. Learn more.

Left ArrowRight Arrow

36.17497, -115.13722

Hourly Observations for September 18, 2017

Temp ( °F °C ) Dew Point ( °F °C ) Humidity (%) Winds ( mph kmh ) Pressure ( in mb ) Visibility ( mi km ) Precip ( " mm )
12:53 am 00:53 Clear 77 25 40 4.4 26 26 Calm 29.87 1011 10 16 0.00 0.00
1:53 am 01:53 Clear 75 23.9 43 6.1 32 32 NW 5 7 29.86 1011 10 16 0.00 0.00
2:53 am 02:53 Clear 73 22.8 43 6.1 34 34 NW 5 7 29.86 1011 10 16 0.00 0.00
3:53 am 03:53 Clear 71 21.7 44 6.7 38 38 NW 5 7 29.86 1011 10 16 0.00 0.00
4:53 am 04:53 Clear 71 21.7 45 7.2 39 39 N 3 6 29.86 1011 10 16 0.00 0.00
5:53 am 05:53 Clear 70 21.1 46 7.8 42 42 NW 5 7 29.87 1011 10 16 0.00 0.00
6:53 am 06:53 Sunny 70 21.1 46 7.8 42 42 Calm 29.88 1012 10 16 0.00 0.00
7:53 am 07:53 Sunny 74 23.3 46 7.8 37 37 N 3 6 29.89 1012 10 16 0.00 0.00
8:53 am 08:53 Sunny 78 25.6 44 6.7 30 30 ESE 7 11 29.90 1013 10 16 0.00 0.00
9:53 am 09:53 Sunny 81 27.2 44 6.7 27 27 SE 10 17 29.90 1013 10 16 0.00 0.00
10:53 am 10:53 Sunny 84 28.9 44 6.7 25 25 SE 7 11 29.88 1012 10 16 0.00 0.00
11:53 am 11:53 Sunny 88 31.1 39 3.9 18 18 S 14 22 29.86 1011 10 16 0.00 0.00
12:53 pm 12:53 Sunny 90 32.2 37 2.8 15 15 S 14 22 29.83 1010 10 16 0.00 0.00
1:53 pm 13:53 Sunny 92 33.3 34 1.1 13 13 S 21 33 29.79 1009 10 16 0.00 0.00
2:53 pm 14:53 Sunny 93 33.9 34 1.1 12 12 S 14 22 29.77 1008 10 16 0.00 0.00
3:48 pm 15:48 Sunny 93 34 36 2 13 13 SW 15 24 29.59 1002 10 16 0.00 0.00
3:53 pm 15:53 Sunny 93 33.9 35 1.7 13 13 WSW 15 24 29.75 1007 10 16 0.00 0.00
4:53 pm 16:53 Sunny 92 33.3 32 0 12 12 SW 21 33 29.74 1007 10 16 0.00 0.00
5:53 pm 17:53 Sunny 90 32.2 31 -0.6 12 12 SW 22 35 29.75 1007 10 16 0.00 0.00
6:53 pm 18:53 Clear 88 31.1 34 1.1 15 15 SSW 15 24 29.74 1007 10 16 0.00 0.00
7:53 pm 19:53 Clear 86 30 36 2.2 17 17 S 15 24 29.73 1007 10 16 0.00 0.00
8:53 pm 20:53 Clear 85 29.4 36 2.2 17 17 S 15 24 29.73 1007 10 16 0.00 0.00
9:53 pm 21:53 Clear 83 28.3 41 5 23 23 S 17 28 29.72 1006 10 16 0.00 0.00
10:53 pm 22:53 Clear 83 28.3 37 2.8 19 19 SSW 14 22 29.72 1006 10 16 0.00 0.00
11:53 pm 23:53 Clear 82 27.8 37 2.8 20 20 SSW 20 31 29.71 1006 10 16 0.00 0.00

Powered by AerisWeather